| time (UTC) | temp F | wind direction | speed MPH | gust MPH | rain 1hr in | rain 24hr in | rain mn in | humidity % | barometer mb |
| 20260903140903 | 63 | 267 | 9.0 | 16.0 | 0.00 | 0.00 | 0.00 | 54 | |
| 20260903140219 | 63 | 275 | 9.0 | 15.0 | 0.00 | 0.00 | 0.00 | 54 | |
| 20260903135403 | 63 | 282 | 6.0 | 16.0 | 0.00 | 0.00 | 0.00 | 55 | |
| 20260903134503 | 63 | 264 | 8.0 | 13.0 | 0.00 | 0.00 | 0.00 | 55 | |
| 20260903133603 | 63 | 274 | 7.0 | 16.0 | 0.00 | 0.00 | 0.00 | 54 | |
| 20260903132703 | 63 | 282 | 8.0 | 15.0 | 0.00 | 0.00 | 0.00 | 54 | |
| 20260903131803 | 64 | 270 | 6.0 | 16.0 | 0.00 | 0.00 | 0.00 | 51 | |
| 20260903130903 | 64 | 275 | 7.0 | 16.0 | 0.00 | 0.00 | 0.00 | 53 | |
| 20260903130003 | 64 | 279 | 7.0 | 14.0 | 0.00 | 0.00 | 0.00 | 53 | |
| 20260903125403 | 63 | 276 | 8.0 | 16.0 | 0.00 | 0.00 | 0.00 | 53 | |
| 20260903124503 | 63 | 278 | 8.0 | 18.0 | 0.00 | 0.00 | 0.00 | 52 | |
| 20260903123603 | 63 | 277 | 7.0 | 15.0 | 0.00 | 0.00 | 0.00 | 50 | |
| 20260903122703 | 63 | 277 | 8.0 | 16.0 | 0.00 | 0.00 | 0.00 | 47 | |
| 20260903121803 | 62 | 281 | 9.0 | 16.0 | 0.00 | 0.00 | 0.00 | 49 | |
| 20260903120903 | 63 | 286 | 7.0 | 16.0 | 0.00 | 0.00 | 0.00 | 48 | |
| 20260903120003 | 63 | 267 | 6.0 | 15.0 | 0.00 | 0.00 | 0.00 | 50 | |
| 20260903115403 | 63 | 268 | 5.0 | 15.0 | 0.00 | 0.00 | 0.00 | 50 | |
| 20260903114503 | 62 | 270 | 6.0 | 17.0 | 0.00 | 0.00 | 0.00 | 51 | |
| 20260903113603 | 62 | 264 | 7.0 | 14.0 | 0.00 | 0.00 | 0.00 | 51 | |
| 20260903112703 | 62 | 270 | 9.0 | 16.0 | 0.00 | 0.00 | 0.00 | 51 | |
| 20260903111803 | 62 | 268 | 5.0 | 14.0 | 0.00 | 0.00 | 0.00 | 53 | |
| 20260903111119 | 62 | 287 | 6.0 | 12.0 | 0.00 | 0.00 | 0.00 | 52 | |
| 20260903110003 | 62 | 275 | 6.0 | 17.0 | 0.00 | 0.00 | 0.00 | 51 | |
| 20260903105403 | 61 | 271 | 7.0 | 14.0 | 0.00 | 0.00 | 0.00 | 51 | |
| 20260903104503 | 62 | 279 | 6.0 | 13.0 | 0.00 | 0.00 | 0.00 | 53 | |
| 20260903103603 | 62 | 263 | 6.0 | 15.0 | 0.00 | 0.00 | 0.00 | 50 | |
| 20260903102703 | 61 | 272 | 7.0 | 15.0 | 0.00 | 0.00 | 0.00 | 52 | |
| 20260903101803 | 61 | 272 | 5.0 | 11.0 | 0.00 | 0.00 | 0.00 | 52 | |
| 20260903100903 | 61 | 266 | 4.0 | 11.0 | 0.00 | 0.00 | 0.00 | 55 | |
| 20260903100003 | 60 | 275 | 6.0 | 16.0 | 0.00 | 0.00 | 0.00 | 56 | |
| 20260903095403 | 60 | 280 | 6.0 | 15.0 | 0.00 | 0.00 | 0.00 | 55 | |
| 20260903094503 | 61 | 268 | 6.0 | 13.0 | 0.00 | 0.00 | 0.00 | 55 | |
| 20260903093603 | 60 | 277 | 5.0 | 13.0 | 0.00 | 0.00 | 0.00 | 56 | |
| 20260903092703 | 60 | 272 | 6.0 | 16.0 | 0.00 | 0.00 | 0.00 | 57 | |
| 20260903091803 | 59 | 286 | 6.0 | 16.0 | 0.00 | 0.00 | 0.00 | 58 | |
| 20260903090903 | 59 | 282 | 7.0 | 15.0 | 0.00 | 0.00 | 0.00 | 58 | |
| 20260903090217 | 59 | 278 | 7.0 | 17.0 | 0.00 | 0.00 | 0.00 | 58 | |
| 20260903085403 | 58 | 279 | 8.0 | 16.0 | 0.00 | 0.00 | 0.00 | 57 | |
| 20260903084503 | 58 | 269 | 6.0 | 13.0 | 0.00 | 0.01 | 0.00 | 58 | |
| 20260903083603 | 58 | 279 | 4.0 | 15.0 | 0.00 | 0.02 | 0.00 | 60 | |
| 20260903082703 | 57 | 285 | 7.0 | 15.0 | 0.00 | 0.02 | 0.00 | 62 | |
| 20260903081803 | 57 | 282 | 7.0 | 16.0 | 0.00 | 0.02 | 0.00 | 62 | |
| 20260903080903 | 57 | 275 | 6.0 | 13.0 | 0.00 | 0.02 | 0.00 | 63 | |
| 20260903080003 | 56 | 276 | 7.0 | 15.0 | 0.00 | 0.02 | 0.00 | 64 | |
| 20260903075403 | 56 | 265 | 7.0 | 15.0 | 0.00 | 0.02 | 0.00 | 63 | |
| 20260903074503 | 55 | 281 | 6.0 | 13.0 | 0.00 | 0.02 | 0.00 | 64 | |
| 20260903073603 | 55 | 292 | 6.0 | 14.0 | 0.00 | 0.02 | 0.00 | 65 | |
| 20260903072703 | 54 | 274 | 7.0 | 17.0 | 0.00 | 0.02 | 0.00 | 68 | |
| 20260903071803 | 54 | 297 | 4.0 | 17.0 | 0.00 | 0.02 | 0.00 | 71 | |
| 20260903070903 | 54 | 276 | 8.0 | 18.0 | 0.00 | 0.02 | 0.00 | 71 | |
| 20260903070003 | 53 | 262 | 9.0 | 18.0 | 0.00 | 0.02 | 0.00 | 72 | |
| 20260903065403 | 53 | 269 | 7.0 | 17.0 | 0.00 | 0.02 | 0.00 | 73 | |
| 20260903064503 | 53 | 267 | 6.0 | 14.0 | 0.00 | 0.02 | 0.00 | 75 | |
| 20260903063603 | 52 | 278 | 7.0 | 17.0 | 0.00 | 0.02 | 0.00 | 76 | |
| 20260903062703 | 52 | 267 | 6.0 | 17.0 | 0.00 | 0.02 | 0.00 | 77 | |
| 20260903061803 | 52 | 275 | 5.0 | 16.0 | 0.00 | 0.02 | 0.00 | 78 | |
| 20260903060903 | 51 | 271 | 5.0 | 16.0 | 0.00 | 0.02 | 0.00 | 79 | |
| 20260903060003 | 51 | 273 | 4.0 | 12.0 | 0.00 | 0.02 | 0.00 | 82 | |
| 20260903055403 | 51 | 266 | 4.0 | 12.0 | 0.00 | 0.02 | 0.00 | 83 | |
| 20260903054503 | 50 | 261 | 2.0 | 9.0 | 0.00 | 0.02 | 0.00 | 85 | |
| 20260903053603 | 50 | 266 | 2.0 | 8.0 | 0.00 | 0.02 | 0.00 | 86 | |
| 20260903052703 | 50 | 269 | 3.0 | 11.0 | 0.00 | 0.02 | 0.00 | 88 | |
| 20260903051803 | 50 | 263 | 2.0 | 10.0 | 0.00 | 0.02 | 0.00 | 90 | |
| 20260903050903 | 49 | 263 | 2.0 | 10.0 | 0.00 | 0.02 | 0.00 | 92 | |
| 20260903050003 | 49 | 274 | 1.0 | 9.0 | 0.00 | 0.02 | 0.00 | 99 | |
| 20260903045403 | 49 | 294 | 0.0 | 4.0 | 0.00 | 0.02 | 0.00 | 100 | |
| 20260903044503 | 49 | 284 | 0.0 | 3.0 | 0.00 | 0.02 | 0.00 | 100 | |
| 20260903043603 | 49 | 269 | 1.0 | 7.0 | 0.00 | 0.02 | 0.00 | 100 | |
| 20260903042703 | 50 | 279 | 1.0 | 4.0 | 0.00 | 0.02 | 0.00 | 100 | |
| 20260903042017 | 50 | 273 | 2.0 | 9.0 | 0.00 | 0.02 | 0.00 | 100 | |
| 20260903040903 | 50 | 265 | 1.0 | 7.0 | 0.00 | 0.02 | 0.00 | 100 | |
| 20260903040003 | 50 | 269 | 2.0 | 7.0 | 0.00 | 0.02 | 0.00 | 100 | |
| 20260903035403 | 50 | 269 | 1.0 | 7.0 | 0.00 | 0.02 | 0.00 | 100 | |
| 20260903034503 | 51 | 266 | 1.0 | 6.0 | 0.00 | 0.02 | 0.00 | 100 | |
| 20260903033818 | 51 | 271 | 3.0 | 6.0 | 0.00 | 0.02 | 0.00 | 100 | |
| 20260903032917 | 51 | 271 | 2.0 | 7.0 | 0.00 | 0.02 | 0.00 | 100 | |
| 20260903031803 | 52 | 272 | 2.0 | 7.0 | 0.00 | 0.02 | 0.00 | 100 | |
| 20260903031115 | 51 | 270 | 1.0 | 7.0 | 0.00 | 0.02 | 0.00 | 100 | |
| 20260903030003 | 52 | 275 | 1.0 | 3.0 | 0.00 | 0.02 | 0.00 | 100 | |
| 20260903025403 | 52 | 269 | 1.0 | 4.0 | 0.00 | 0.02 | 0.00 | 100 | |
| 20260903024503 | 52 | 264 | 0.0 | 3.0 | 0.00 | 0.02 | 0.00 | 100 | |
| 20260903023603 | 52 | 274 | 2.0 | 5.0 | 0.00 | 0.02 | 0.00 | 100 | |
| 20260903022917 | 52 | 277 | 1.0 | 4.0 | 0.00 | 0.02 | 0.00 | 100 | |
| 20260903021803 | 52 | 261 | 1.0 | 4.0 | 0.00 | 0.02 | 0.00 | 100 | |
| 20260903020903 | 52 | 275 | 1.0 | 4.0 | 0.00 | 0.02 | 0.00 | 100 | |
| 20260903020219 | 52 | 274 | 1.0 | 9.0 | 0.00 | 0.02 | 0.00 | 100 | |
| 20260903015403 | 52 | 274 | 2.0 | 7.0 | 0.00 | 0.02 | 0.00 | 100 | |
| 20260903014503 | 52 | 280 | 1.0 | 4.0 | 0.00 | 0.02 | 0.00 | 100 | |
| 20260903013603 | 52 | 265 | 1.0 | 7.0 | 0.00 | 0.02 | 0.00 | 100 | |
| 20260903012703 | 52 | 272 | 0.0 | 3.0 | 0.00 | 0.02 | 0.00 | 100 | |
| 20260903011803 | 53 | 244 | 0.0 | 2.0 | 0.00 | 0.02 | 0.00 | 100 | |
| 20260903010903 | 53 | 271 | 0.0 | 4.0 | 0.00 | 0.02 | 0.00 | 100 | |
| 20260903010003 | 53 | 263 | 0.0 | 2.0 | 0.00 | 0.02 | 0.00 | 100 | |
| 20260903005403 | 53 | 274 | 0.0 | 5.0 | 0.00 | 0.02 | 0.00 | 100 | |
| 20260903004717 | 53 | 274 | 0.0 | 5.0 | 0.00 | 0.02 | 0.00 | 99 | |
| 20260903003603 | 53 | 282 | 1.0 | 5.0 | 0.00 | 0.02 | 0.00 | 98 | |
| 20260903002703 | 53 | 248 | 0.0 | 4.0 | 0.00 | 0.02 | 0.00 | 96 | |
| 20260903001803 | 53 | 274 | 1.0 | 5.0 | 0.00 | 0.02 | 0.00 | 94 | |
| 20260903000903 | 53 | 283 | 2.0 | 5.0 | 0.00 | 0.02 | 0.00 | 93 | |
| 20260903000003 | 54 | 279 | 2.0 | 9.0 | 0.00 | 0.02 | 0.00 | 92 | |
| 20260902235403 | 54 | 280 | 2.0 | 10.0 | 0.00 | 0.02 | 0.00 | 91 | |
| 20260902234503 | 54 | 276 | 3.0 | 10.0 | 0.00 | 0.02 | 0.00 | 91 | |
| 20260902233816 | 54 | 269 | 2.0 | 10.0 | 0.00 | 0.02 | 0.00 | 91 | |
| 20260902232703 | 54 | 279 | 3.0 | 9.0 | 0.00 | 0.02 | 0.00 | 90 | |
| 20260902231803 | 54 | 272 | 3.0 | 10.0 | 0.00 | 0.02 | 0.00 | 90 | |
| 20260902231118 | 54 | 276 | 3.0 | 10.0 | 0.00 | 0.02 | 0.00 | 90 | |
| 20260902230003 | 54 | 274 | 3.0 | 11.0 | 0.00 | 0.02 | 0.00 | 90 | |
| 20260902225403 | 54 | 277 | 3.0 | 9.0 | 0.00 | 0.02 | 0.00 | 90 | |
| 20260902224503 | 54 | 273 | 3.0 | 10.0 | 0.00 | 0.02 | 0.00 | 91 | |
| 20260902223603 | 53 | 273 | 2.0 | 6.0 | 0.00 | 0.02 | 0.00 | 91 | |
| 20260902222703 | 53 | 264 | 0.0 | 5.0 | 0.00 | 0.02 | 0.00 | 90 | |
| 20260902221803 | 54 | 245 | 0.0 | 3.0 | 0.00 | 0.02 | 0.00 | 89 | |
| 20260902220903 | 54 | 269 | 1.0 | 7.0 | 0.00 | 0.02 | 0.00 | 88 | |
| 20260902220003 | 54 | 275 | 2.0 | 6.0 | 0.00 | 0.02 | 0.00 | 87 | |
| 20260902215403 | 54 | 270 | 3.0 | 5.0 | 0.00 | 0.02 | 0.02 | 86 | |
| 20260902214503 | 54 | 270 | 2.0 | 6.0 | 0.00 | 0.02 | 0.02 | 85 | |
| 20260902213815 | 55 | 272 | 4.0 | 12.0 | 0.00 | 0.02 | 0.02 | 85 | |
| 20260902212703 | 55 | 269 | 4.0 | 10.0 | 0.00 | 0.02 | 0.02 | 85 | |
| 20260902212018 | 55 | 275 | 4.0 | 13.0 | 0.00 | 0.02 | 0.02 | 85 | |
| 20260902210903 | 54 | 273 | 2.0 | 8.0 | 0.00 | 0.02 | 0.02 | 84 | |
| 20260902210217 | 54 | 273 | 1.0 | 4.0 | 0.00 | 0.02 | 0.02 | 84 | |
| 20260902205403 | 55 | 273 | 2.0 | 5.0 | 0.00 | 0.02 | 0.02 | 82 | |
| 20260902204503 | 55 | 281 | 2.0 | 10.0 | 0.00 | 0.02 | 0.02 | 82 | |
| 20260902203603 | 55 | 280 | 1.0 | 10.0 | 0.00 | 0.02 | 0.02 | 81 | |
| 20260902202703 | 55 | 278 | 1.0 | 5.0 | 0.00 | 0.02 | 0.02 | 81 | |
| 20260902201803 | 55 | 267 | 1.0 | 6.0 | 0.00 | 0.02 | 0.02 | 80 | |
| 20260902200903 | 56 | 276 | 1.0 | 5.0 | 0.00 | 0.02 | 0.02 | 79 | |
| 20260902200003 | 56 | 278 | 1.0 | 5.0 | 0.00 | 0.02 | 0.02 | 78 | |
| 20260902195616 | 56 | 277 | 2.0 | 5.0 | 0.00 | 0.02 | 0.02 | 78 | |
| 20260902194503 | 56 | 272 | 1.0 | 6.0 | 0.00 | 0.02 | 0.02 | 77 | |
| 20260902193819 | 56 | 270 | 1.0 | 6.0 | 0.00 | 0.02 | 0.02 | 76 | |
| 20260902192918 | 57 | 272 | 3.0 | 7.0 | 0.00 | 0.02 | 0.02 | 75 | |
| 20260902191803 | 57 | 270 | 1.0 | 6.0 | 0.00 | 0.02 | 0.02 | 74 | |
| 20260902190903 | 57 | 274 | 1.0 | 6.0 | 0.00 | 0.02 | 0.02 | 74 | |
| 20260902190003 | 57 | 265 | 3.0 | 9.0 | 0.00 | 0.02 | 0.02 | 73 | |
| 20260902185615 | 58 | 268 | 3.0 | 9.0 | 0.00 | 0.02 | 0.02 | 73 | |
| 20260902184503 | 58 | 280 | 4.0 | 12.0 | 0.00 | 0.02 | 0.02 | 72 | |
| 20260902183603 | 58 | 267 | 5.0 | 12.0 | 0.00 | 0.02 | 0.02 | 71 | |
| 20260902182703 | 58 | 276 | 5.0 | 11.0 | 0.00 | 0.02 | 0.02 | 71 | |
| 20260902181803 | 59 | 276 | 4.0 | 10.0 | 0.00 | 0.02 | 0.02 | 70 | |
| 20260902180903 | 59 | 273 | 5.0 | 13.0 | 0.00 | 0.02 | 0.02 | 69 | |
| 20260902180005 | 59 | 273 | 3.0 | 11.0 | 0.00 | 0.02 | 0.02 | 69 | |
| 20260902175403 | 59 | 275 | 5.0 | 11.0 | 0.00 | 0.02 | 0.02 | 68 | |
| 20260902174503 | 60 | 267 | 6.0 | 12.0 | 0.00 | 0.02 | 0.02 | 67 | |
| 20260902173818 | 60 | 267 | 7.0 | 14.0 | 0.00 | 0.02 | 0.02 | 66 | |
| 20260902172703 | 60 | 277 | 5.0 | 10.0 | 0.00 | 0.02 | 0.02 | 65 | |
| 20260902171803 | 61 | 272 | 6.0 | 14.0 | 0.00 | 0.02 | 0.02 | 64 | |
| 20260902170903 | 61 | 274 | 6.0 | 15.0 | 0.00 | 0.02 | 0.02 | 62 | |
| 20260902170003 | 62 | 272 | 5.0 | 13.0 | 0.00 | 0.02 | 0.02 | 60 | |
| 20260902165403 | 62 | 273 | 6.0 | 13.0 | 0.00 | 0.02 | 0.02 | 60 | |
| 20260902164503 | 62 | 274 | 8.0 | 17.0 | 0.00 | 0.02 | 0.02 | 59 | |
| 20260902163603 | 63 | 274 | 8.0 | 19.0 | 0.00 | 0.02 | 0.02 | 58 | |
| 20260902162703 | 63 | 280 | 7.0 | 15.0 | 0.00 | 0.02 | 0.02 | 58 | |
| 20260902161803 | 64 | 278 | 6.0 | 18.0 | 0.00 | 0.02 | 0.02 | 56 | |
| 20260902160903 | 64 | 268 | 7.0 | 21.0 | 0.00 | 0.02 | 0.02 | 56 | |
| 20260902160003 | 64 | 274 | 9.0 | 18.0 | 0.00 | 0.02 | 0.02 | 55 | |
| 20260902155403 | 64 | 276 | 9.0 | 24.0 | 0.00 | 0.02 | 0.02 | 56 | |
| 20260902154503 | 64 | 276 | 7.0 | 24.0 | 0.00 | 0.02 | 0.02 | 55 | |
| 20260902153603 | 64 | 269 | 11.0 | 23.0 | 0.00 | 0.02 | 0.02 | 54 | |
| 20260902152703 | 65 | 274 | 8.0 | 18.0 | 0.00 | 0.02 | 0.02 | 52 | |
| 20260902151803 | 65 | 271 | 9.0 | 19.0 | 0.00 | 0.02 | 0.02 | 53 | |
| 20260902150903 | 65 | 275 | 10.0 | 22.0 | 0.00 | 0.02 | 0.02 | 52 | |
| 20260902150003 | 65 | 274 | 10.0 | 20.0 | 0.00 | 0.02 | 0.02 | 52 | |
| 20260902145403 | 65 | 271 | 10.0 | 21.0 | 0.00 | 0.02 | 0.02 | 52 | |
| 20260902144717 | 65 | 267 | 7.0 | 19.0 | 0.00 | 0.02 | 0.02 | 51 | |
| 20260902143603 | 65 | 274 | 10.0 | 24.0 | 0.00 | 0.02 | 0.02 | 52 | |
| 20260902142705 | 65 | 276 | 9.0 | 20.0 | 0.00 | 0.02 | 0.02 | 53 | |
| 20260902141803 | 65 | 271 | 10.0 | 20.0 | 0.00 | 0.02 | 0.02 | 53 |